{"data":{"norad_id":64807,"intl_designator":"2025-150T","name":"STARLINK-34663","alt_names":[],"object_type":"PAYLOAD","status":"ACTIVE","operator":null,"country":"US","launch_date":"2025-07-16","launch_site_code":"AFWTR","launch_vehicle":null,"mission":null,"orbit_class":"UNKNOWN","rcs_meters":null,"size_class":null,"mass_kg":null,"dimensions":null,"purposes":["comms"],"wikipedia_slug":null,"has_3d_model":false,"image_url":null,"decayed_at":null,"tle_current":{"epoch":"2026-05-25T04:21:19.884096Z","epoch_age_seconds":49566,"freshness":"FRESH","line1":"1 64807U 25150T   26145.18148014  .00003285  00000+0  28291-3 0  9995","line2":"2 64807  70.0002 301.6288 0003249 268.2545  91.8242 14.98337123 47978","mean_motion":14.98337123,"eccentricity":0.0003249,"inclination_deg":70.0002,"raan_deg":301.6288,"arg_perigee_deg":268.2545,"mean_anomaly_deg":91.8242,"bstar":0.00028291,"rev_number":4797,"period_min":96.106542239093,"perigee_km":569.77575322813,"apogee_km":574.29197425539,"semimajor_km":6950.1708637418,"source":"CELESTRAK","updated_at":"2026-05-25T13:38:20.568129Z"}}}